Content
SEND FEEDBACK

Daily
Averages
Monthly
Summary
United States of America

FAYETTEVILLE, TENNESSEE


Home > North America > United States > Tennessee
Elevation: 700 feet     Latitude: 35 10N     Longitude: 086 33W

WEATHER
 
SELECT A DAY
Number of Records: 298,595;   Date Range: 4/22/02 - 9/18/14
 
SHARE

PRINT THIS DATA

[ ← Previous Day ]
WEATHER ALMANAC - JANUARY 21, 2014
[ Next Day → ]
[ °C ]   °F
Weather ElementAverageHighLow
Temperature32.2 °F50 °F (12:35 am)17.6 °F (11:55 pm)
Dewpoint18 °F28.4 °F (2:35 am)5 °F (8:55 pm)
Humidity56.8 %75 % (5:55 am)35 % (12:35 am)
Barometer30.00 in30.18 in (7:15 pm)29.79 in (2:35 am)
Wind Speed11.2 mph24.2 mph (11:55 am)
Wind Gust34.5 mph (11:15 am)
Weather ElementAverage
Visibility10 mi
Wind DirectionWSW (251 °)

Weather ElementTotal
Precipitation---
Heating Degree Days31.2 (Base 65)
Averaged from 71 records on January 21, 2014
WEATHER CONDITIONS BREAKOUT
WIND DIRECTION BREAKOUT
WEATHER BY HOUR - JANUARY 21, 2014
[ °C ]   °F
Local TimeTemperatureDewpointHumidityBarometerVisibilityWind DirectionWind SpeedGust SpeedPrecipitationEventsConditions
12:35 AM50.0 °F23.0 °F35 %29.81 in10.0 miSSW (210°)10.4 mphScattered Clouds
12:55 AM48.2 °F24.8 °F40 %29.81 in10.0 miCalmMostly Cloudy
1:15 AM48.2 °F24.8 °F40 %29.80 in10.0 miWSW (240°)4.6 mphOvercast
1:35 AM50.0 °F23.0 °F35 %29.81 in10.0 miCalmOvercast
1:55 AM48.2 °F23.0 °F37 %29.80 in10.0 miCalmOvercast
2:15 AM44.6 °F26.6 °F49 %29.80 in10.0 miCalmMostly Cloudy
2:35 AM41.0 °F28.4 °F61 %29.79 in10.0 miCalmScattered Clouds
2:55 AM41.0 °F26.6 °F57 %29.79 in10.0 miCalmClear
3:15 AM39.2 °F26.6 °F61 %29.81 in10.0 miCalmClear
3:35 AM42.8 °F26.6 °F53 %29.81 in10.0 miCalmMostly Cloudy
3:55 AM42.8 °F26.6 °F53 %29.82 in10.0 miNNW (330°)8.1 mphOvercast
4:15 AM42.8 °F28.4 °F57 %29.83 in10.0 miNNW (330°)3.5 mphOvercast
4:35 AM41.0 °F28.4 °F61 %29.84 in10.0 miCalmScattered Clouds
4:55 AM37.4 °F28.4 °F70 %29.84 in10.0 miCalmClear
5:15 AM37.4 °F28.4 °F70 %29.84 in10.0 miCalmClear
5:35 AM37.4 °F28.4 °F70 %29.85 in10.0 miCalmClear
5:55 AM35.6 °F28.4 °F75 %29.86 in10.0 miCalmClear
6:15 AM37.4 °F28.4 °F70 %29.86 in10.0 miCalmMostly Cloudy
6:35 AM35.6 °F28.4 °F75 %29.87 in10.0 miCalmMostly Cloudy
6:55 AM35.6 °F28.4 °F75 %29.87 in10.0 miWNW (300°)4.6 mphScattered Clouds
7:15 AM35.6 °F28.4 °F75 %29.88 in10.0 miCalmClear
7:35 AM35.6 °F28.4 °F75 %29.88 in10.0 miCalmClear
7:55 AM37.4 °F28.4 °F70 %29.89 in10.0 miNW (310°)10.4 mphMostly Cloudy
8:15 AM37.4 °F28.4 °F70 %29.89 in10.0 miNW (310°)13.8 mph18.4 mphMostly Cloudy
8:35 AM39.2 °F28.4 °F65 %29.91 in10.0 miNW (320°)11.5 mphMostly Cloudy
8:55 AM39.2 °F28.4 °F65 %29.92 in10.0 miNW (310°)13.8 mph20.7 mphOvercast
9:15 AM39.2 °F28.4 °F65 %29.92 in10.0 miWNW (300°)13.8 mph20.7 mphOvercast
9:35 AM39.2 °F26.6 °F61 %29.93 in10.0 miNW (310°)13.8 mph21.9 mphOvercast
9:55 AM37.4 °F26.6 °F65 %29.94 in10.0 miNW (310°)19.6 mph23.0 mphOvercast
10:15 AM37.4 °F26.6 °F65 %29.96 in10.0 miNW (310°)19.6 mph26.5 mphOvercast
10:35 AM35.6 °F26.6 °F70 %29.97 in10.0 miWNW (300°)23.0 mph31.1 mphOvercast
10:55 AM35.6 °F23.0 °F60 %29.98 in10.0 miNW (320°)23.0 mph29.9 mphOvercast
11:15 AM33.8 °F21.2 °F60 %30.00 in10.0 miNW (320°)21.9 mph34.5 mphOvercast
11:35 AM33.8 °F19.4 °F56 %30.01 in10.0 miNW (320°)21.9 mph29.9 mphOvercast
11:55 AM32.0 °F19.4 °F60 %30.01 in10.0 miNNW (340°)24.2 mph27.6 mphOvercast
12:15 PM32.0 °F19.4 °F60 %30.01 in10.0 miNW (320°)17.3 mph27.6 mphOvercast
12:35 PM32.0 °F19.4 °F60 %30.02 in10.0 miNW (310°)16.1 mph27.6 mphOvercast
12:55 PM30.2 °F15.8 °F55 %30.02 in10.0 miNNW (330°)19.6 mph31.1 mphOvercast
1:15 PM32.0 °F14.0 °F48 %30.03 in10.0 miNNW (340°)24.2 mph29.9 mphOvercast
1:35 PM30.2 °F14.0 °F51 %30.04 in10.0 miNorth (350°)24.2 mph31.1 mphOvercast
1:55 PM30.2 °F14.0 °F51 %30.05 in10.0 miNNW (330°)18.4 mph27.6 mphOvercast
2:15 PM30.2 °F14.0 °F51 %30.05 in10.0 miNNW (340°)19.6 mph26.5 mphOvercast
2:35 PM28.4 °F14.0 °F55 %30.06 in10.0 miNNW (330°)18.4 mph27.6 mphOvercast
2:55 PM30.2 °F12.2 °F47 %30.07 in10.0 miNorth (350°)19.6 mph25.3 mphOvercast
3:15 PM30.2 °F12.2 °F47 %30.07 in10.0 miNorth (350°)20.7 mphOvercast
3:35 PM28.4 °F12.2 °F51 %30.08 in10.0 miNNW (340°)17.3 mph25.3 mphOvercast
3:55 PM28.4 °F10.4 °F47 %30.10 in10.0 miNorth (350°)16.1 mphMostly Cloudy
4:15 PM28.4 °F10.4 °F47 %30.12 in10.0 miNorth (350°)18.4 mph26.5 mphMostly Cloudy
4:35 PM26.6 °F10.4 °F51 %30.12 in10.0 miNorth (350°)16.1 mph23.0 mphScattered Clouds
4:55 PM26.6 °F10.4 °F51 %30.14 in10.0 miNorth (350°)13.8 mph20.7 mphMostly Cloudy
5:15 PM26.6 °F10.4 °F51 %30.15 in10.0 miNorth (350°)16.1 mph20.7 mphOvercast
5:35 PM24.8 °F8.6 °F50 %30.15 in10.0 miNorth (350°)17.3 mph24.2 mphOvercast
5:55 PM24.8 °F8.6 °F50 %30.16 in10.0 miNorth (360°)16.1 mph20.7 mphMostly Cloudy
6:15 PM24.8 °F8.6 °F50 %30.17 in10.0 miNorth (350°)12.7 mphOvercast
6:35 PM23.0 °F10.4 °F59 %30.17 in10.0 miNorth (360°)12.7 mphOvercast
6:55 PM23.0 °F10.4 °F59 %30.17 in10.0 miNorth (360°)12.7 mph17.3 mphOvercast
7:15 PM23.0 °F10.4 °F59 %30.18 in10.0 miNorth (350°)12.7 mphOvercast
7:35 PM23.0 °F8.6 °F54 %30.18 in10.0 miNNW (330°)13.8 mphOvercast
7:55 PM23.0 °F8.6 °F54 %30.17 in10.0 miNorth (360°)10.4 mphOvercast
8:15 PM23.0 °F8.6 °F54 %30.16 in10.0 miNorth (350°)11.5 mph16.1 mphOvercast
8:35 PM23.0 °F8.6 °F54 %30.17 in10.0 miNorth (360°)10.4 mphOvercast
8:55 PM21.2 °F5.0 °F50 %30.17 in10.0 miNNW (340°)15.0 mphMostly Cloudy
9:15 PM21.2 °F5.0 °F50 %30.17 in10.0 miNNW (330°)12.7 mphScattered Clouds
9:35 PM19.4 °F5.0 °F54 %30.17 in10.0 miNNW (340°)13.8 mph17.3 mphClear
9:55 PM19.4 °F5.0 °F54 %30.17 in10.0 miNNW (340°)10.4 mphClear
10:15 PM19.4 °F5.0 °F54 %30.17 in10.0 miNNW (340°)10.4 mphClear
10:35 PM19.4 °F5.0 °F54 %30.17 in10.0 miNNW (330°)8.1 mphClear
10:55 PM19.4 °F5.0 °F54 %30.17 in10.0 miNNW (330°)9.2 mphClear
11:15 PM19.4 °F5.0 °F54 %30.17 in10.0 miNNW (330°)8.1 mphClear
11:35 PM19.4 °F5.0 °F54 %30.17 in10.0 miNNW (340°)10.4 mphClear
11:55 PM17.6 °F6.8 °F63 %30.17 in10.0 miNNW (340°)8.1 mphClear
Hourly data recorded from KMDQ, located miles away from Fayetteville, Tennessee







STORIES FROM OUR PARTNERS